CAPE
2112 1916 1563 1122 520 523 573 546 695 940 977 971 815 671 620 605 399 358 262 235 50 1 23 59 22 7 58 162 352 494 661 783 332 125 26 0 2 2 145 384 672 1309 1015
1877 1532 1206 965 507 347 535 453 458 392 507 593 736 852 715 516 414 236 148 29 7 20 12 22 3 2 4 43 218 371 431 524 726 724 531 324 0 0 15 263 306 841 1211
1416 1047 1083 1093 1005 727 562 460 473 454 542 851 769 754 478 354 218 158 45 47 39 23 14 6 0 5 0 8 17 214 336 485 543 620 728 526 278 79 52 112 107 11 150
1094 939 958 939 717 340 293 445 960 1222 939 777 803 637 603 245 132 78 16 13 0 0 12 6 4 0 0 0 59 132 204 326 393 625 732 894 772 636 504 325 241 231 140
1115 871 908 846 385 126 89 307 848 956 892 817 734 390 325 196 26 27 11 0 9 12 0 0 0 0 0 0 7 79 161 254 387 540 699 863 1117 976 851 650 432 405 265
917 746 771 508 193 81 209 421 821 983 1022 795 342 302 115 59 18 11 0 5 0 0 0 0 0 1 0 10 5 0 27 175 449 483 594 644 861 941 782 770 679 427 643
1045 715 563 438 46 250 345 779 1075 1168 1043 735 613 146 274 94 26 10 0 0 1 0 0 1 4 8 6 7 8 26 5 2 117 496 494 629 704 770 628 484 471 307 246
906 707 626 380 227 262 1013 1107 1355 1342 922 633 331 547 269 173 30 0 0 0 0 0 11 31 8 31 10 2 83 193 243 269 153 293 492 717 826 731 955 650 411 647 692
790 772 706 371 318 797 852 1045 1349 1192 922 595 636 389 332 82 0 0 0 3 0 19 38 24 64 56 0 46 122 378 497 709 682 477 477 815 750 686 514 399 443 421 318
795 901 915 645 802 954 974 1051 1442 1229 953 784 512 617 84 40 0 1 2 15 0 0 1 50 195 163 48 135 160 400 646 824 797 751 590 607 595 491 357 268 213 265 381
1191 1094 861 895 1359 1332 1399 1223 1438 1383 1071 817 837 644 111 11 9 0 0 12 11 1 2 80 170 230 222 179 207 242 290 498 397 575 933 824 745 666 474 224 128 103 114
1375 1202 982 1189 821 889 1369 1517 1597 1489 1054 817 719 151 139 26 0 0 0 3 17 46 1 19 30 120 209 235 147 284 314 309 341 355 540 462 398 416 415 348 415 403 360
1640 1477 1360 1702 1169 1491 1746 1587 1356 1207 1258 63 384 100 57 13 12 0 1 0 21 49 48 2 2 35 67 142 127 145 176 227 257 200 258 281 295 305 305 285 282 278 307
1246 910 715 881 1489 1612 1165 1022 1008 1286 784 357 118 76 66 8 0 0 0 3 2 28 73 54 25 5 11 27 43 40 59 81 126 213 153 168 135 305 81 78 49 46 19
440 116 288 636 923 726 1167 376 714 25 141 176 12 12 0 0 0 0 0 4 0 9 32 85 103 77 25 21 0 3 9 19 36 49 51 48 42 39 63 55 29 9 13
87 0 8 361 711 730 334 222 28 32 10 18 1 0 0 0 0 0 0 0 7 5 33 44 51 64 75 30 8 43 14 15 2 3 0 4 6 8 1 0 3 0 7
73 3 592 663 555 855 509 246 46 12 20 13 0 0 0 0 0 0 0 0 0 9 19 23 11 6 3 46 80 64 63 65 3 0 19 0 0 2 5 4 2 4 3
390 333 849 1144 689 649 463 619 151 26 21 11 0 0 0 0 0 0 0 0 0 0 0 0 2 3 0 0 0 0 0 0 0 11 20 15 12 47 59 50 35 6 1
1048 970 985 915 457 353 390 510 537 567 99 469 101 14 0 0 0 0 0 0 0 0 0 0 0 0 0 0 0 0 0 0 0 0 0 0 3 2 9 8 9 6 5
290 511 233 226 205 138 287 198 198 336 161 41 1 0 5 0 0 0 0 0 0 0 0 0 0 0 0 0 0 0 0 0 0 0 0 0 0 0 0 0 0 0 0
99 176 121 170 317 476 129 101 3 0 122 28 17 0 0 0 0 0 0 0 0 0 9 4 0 0 5 0 0 0 0 0 0 0 0 0 0 0 0 0 0 0 0
131 141 54 65 91 90 12 12 35 105 36 22 10 1 0 0 0 0 0 0 0 2 4 13 0 0 0 0 0 0 0 0 0 0 0 0 0 0 0 0 0 0 0
118 79 112 55 99 53 35 6 3 42 11 21 4 0 0 0 0 0 0 0 0 0 0 0 0 0 0 0 0 0 0 0 0 0 0 0 0 0 0 0 0 0 0
78 81 80 97 79 87 18 0 3 1 1 0 0 0 0 0 0 0 0 0 0 0 0 0 0 0 0 0 0 0 0 0 0 0 0 0 0 0 0 0 0 0 0
0 4 27 24 16 5 0 0 9 0 0 0 0 0 0 0 0 0 0 0 0 0 0 0 0 0 0 0 0 0 0 0 0 0 0 0 0 0 0 0 0 0 0
0 4 9 3 1 0 0 0 0 0 0 0 0 0 0 0 0 0 0 0 0 0 0 0 0 0 0 0 0 0 0 0 0 0 0 0 0 0 0 0 0 0 0
CIN
-67 -86 -130 -178 -233 -226 -222 -219 -156 -89 -37 -1 -2 -3 -4 -4 -19 -28 -46 -44 -32 -0 -48 -159 -67 -67 -178 -82 -19 -15 -9 -2 -4 -28 -35 -0 -5 -3 -15 -31 -116 -65 -38
-54 -119 -158 -203 -244 -269 -223 -223 -183 -168 -82 -13 -6 -4 -5 -8 -16 -58 -106 -21 -6 -15 -5 -5 -6 -0 -3 -277 -59 -20 -14 -15 -3 -0 -18 -41 -0 -0 -15 -14 -1 -16 -19
-106 -160 -163 -170 -160 -186 -209 -214 -175 -115 -25 -2 -4 -4 -5 -13 -46 -85 -14 -10 -10 -8 -4 -6 -0 -3 -0 -0 -129 -51 -13 -19 -11 -12 -9 -24 -32 -38 -311 -115 -190 -46 -698
-127 -143 -142 -157 -179 -249 -237 -172 -46 -1 -2 -4 -4 -5 -3 -21 -82 -12 -45 -41 -0 -0 -1 -1 -2 -0 -0 -0 -0 -137 -36 -12 -12 -7 -6 -8 -19 -57 -58 -39 -21 -56 -40
-103 -108 -107 -120 -207 -290 -276 -166 -19 -4 -4 -3 -1 -3 -14 -52 -1 -39 -34 -0 -1 -1 -0 -0 -0 -0 -0 -0 -0 -168 -52 -7 -6 -6 -3 -4 -1 -2 -6 -58 -19 -59 -44
-92 -89 -74 -130 -222 -276 -187 -99 -15 -7 -1 -2 -3 -13 -76 -2 -6 -20 -0 -0 -0 -0 -0 -0 -0 -9 -0 -4 -10 -0 -1 -11 -1 -6 -6 -5 -8 -19 -41 -34 -21 -10 -14
-38 -45 -74 -117 -244 -171 -119 -27 -5 -0 -0 -1 -2 -48 -20 -105 -14 -16 -0 -0 -0 -0 -0 -11 -19 -40 -22 -0 -0 -0 -1 -17 -6 -7 -5 -12 -18 -47 -53 -26 -39 -47 -53
-18 -30 -55 -119 -157 -138 -14 -1 -0 -0 -0 -1 -14 -5 -32 -83 -17 -0 -0 -1 -0 -0 -5 -3 -35 -40 -32 -0 -22 -24 -9 -6 -38 -9 -10 -9 -26 -46 -18 -31 -46 -31 -18
-12 -22 -44 -110 -123 -30 -6 -0 -0 -0 -1 -6 -5 -6 -6 -76 -0 -0 -0 -2 -0 -0 -2 -3 -4 -49 -0 -6 -30 -0 -1 -1 -6 -29 -20 -3 -18 -26 -35 -25 -30 -7 -5
-16 -12 -28 -73 -25 -0 -0 -0 -0 -0 -2 -2 -8 -8 -13 -40 -0 -92 -0 -0 -0 -0 -0 -7 -0 -0 -22 -3 -15 -16 -1 -2 -8 -8 -12 -10 -19 -20 -30 -50 -49 -3 -3
-10 -6 -25 -21 -1 -0 -1 -0 -0 -1 -8 -18 -12 -7 -56 -40 -28 -0 -0 -0 -0 -0 -0 -0 -0 -0 -11 -15 -8 -19 -12 -30 -24 -24 -5 -17 -20 -14 -22 -46 -71 -51 -24
-11 -3 -6 -1 -12 -9 -0 -0 -2 -5 -9 -22 -12 -56 -30 -53 -0 -0 -0 -32 -5 -0 -0 -0 -10 -1 -0 -0 -4 -0 -1 -17 -28 -15 -13 -27 -13 -11 -13 -14 -7 -9 -5
-4 -1 -0 -2 -2 -1 -1 -4 -7 -18 -16 -36 -9 -31 -26 -38 -39 -10 -75 -0 -23 -0 -1 -0 -0 -0 -0 -0 -0 -0 -0 -1 -5 -8 -2 -0 -0 -0 -0 -2 -6 -11 -7
-6 -4 -20 -14 -7 -5 -4 -7 -16 -4 -13 -23 -42 -33 -28 -38 -0 -0 -0 -82 -4 -5 -4 -14 -1 -0 -0 -0 -0 -1 -0 -2 -3 -1 -4 -2 -2 -0 -3 -0 -1 -21 -9
-0 -68 -74 -41 -25 -49 -30 -13 -58 -51 -39 -48 -86 -72 -0 -0 -0 -0 -0 -118 -0 -0 -0 -2 -5 -13 -0 -2 -0 -1 -0 -2 -0 -0 -2 -1 -0 -3 -2 -4 -5 -13 -7
-16 -85 -79 -36 -12 -20 -93 -25 -35 -24 -21 -12 -0 -0 -0 -0 -0 -0 -0 -0 -105 -102 -15 -2 -4 -5 -21 -3 -2 -2 -0 -2 -1 -0 -0 -0 -0 -0 -0 -3 -1 -0 -1
-1 -81 -59 -10 -15 -22 -81 -122 -79 -3 -32 -29 -0 -0 -0 -0 -0 -0 -0 -0 -0 -114 -60 -72 -72 -89 -4 -14 -134 -21 -7 -12 -0 -0 -0 -0 -0 -1 -0 -0 -0 -1 -0
-80 -129 -30 -21 -19 -27 -44 -106 -48 -48 -41 -7 -0 -0 -0 -0 -0 -0 -0 -0 -0 -0 -0 -0 -147 -201 -0 -0 -0 -0 -0 -0 -0 -1 -0 -0 -0 -1 -5 -8 -8 -2 -1
-16 -5 -9 -13 -8 -79 -68 -30 -49 -67 -108 -10 -15 -9 -0 -0 -0 -0 -0 -0 -0 -0 -0 -0 -0 -0 -0 -0 -0 -0 -0 -0 -0 -0 -0 -0 -0 -0 -0 -0 -0 -0 -0
-30 -10 -28 -30 -35 -44 -71 -89 -18 -60 -53 -14 -3 -0 -32 -0 -0 -0 -0 -0 -0 -0 -0 -0 -0 -0 -0 -0 -0 -0 -0 -0 -0 -0 -0 -0 -0 -0 -0 -0 -0 -0 -0
-134 -57 -183 -193 -20 -19 -37 -67 -0 -0 -10 -1 -0 -0 -0 -0 -0 -0 -0 -0 -0 -0 -6 -9 -0 -0 -19 -0 -0 -0 -0 -0 -0 -0 -0 -0 -0 -0 -0 -0 -0 -0 -0
-0 -102 -192 -103 -63 -99 -6 -21 -24 -26 -5 -4 -0 -0 -0 -0 -0 -0 -0 -0 -0 -4 -5 -15 -0 -0 -0 -0 -0 -0 -0 -0 -0 -0 -0 -0 -0 -0 -0 -0 -0 -0 -0
-15 -44 -35 -53 -89 -79 -78 -158 -47 -18 -2 -5 -2 -0 -0 -0 -0 -0 -0 -0 -0 -0 -0 -0 -0 -0 -0 -0 -0 -0 -0 -0 -0 -0 -0 -0 -0 -0 -0 -0 -0 -0 -0
-27 -14 -25 -46 -60 -43 -99 -0 -13 -0 -1 -0 -0 -0 -0 -0 -0 -0 -0 -0 -0 -0 -0 -0 -0 -0 -0 -0 -0 -0 -0 -0 -0 -0 -0 -0 -0 -0 -0 -0 -0 -0 -0
-0 -0 -0 -50 -0 -0 -0 -0 -8 -0 -0 -0 -0 -0 -0 -0 -0 -0 -0 -0 -0 -0 -0 -0 -0 -0 -0 -0 -0 -0 -0 -0 -0 -0 -0 -0 -0 -0 -0 -0 -0 -0 -0
-0 -2 -0 -0 -0 -0 -0 -0 -0 -0 -0 -0 -0 -0 -0 -0 -0 -0 -0 -0 -0 -0 -0 -0 -0 -0 -0 -0 -0 -0 -0 -0 -0 -0 -0 -0 -0 -0 -0 -0 -0 -0 -0
Wind_Speed
40 39 43 43 42 40 39 40 40 41 42 43 45 46 46 47 47 47 45 42 nan nan nan nan nan nan nan 38 39 43 45 44 44 36 nan nan nan nan 29 31 36 30 30
40 43 44 45 43 42 42 43 45 46 45 45 47 48 47 50 50 49 45 nan nan nan nan nan nan nan nan nan 44 43 47 44 47 34 36 37 nan nan nan 27 38 24 27
47 45 45 46 47 47 46 47 49 49 49 48 48 48 49 49 46 44 nan nan nan nan nan nan nan nan nan nan nan 45 50 53 50 46 37 35 30 nan nan 41 46 nan 32
46 45 46 48 49 48 49 50 50 51 49 49 47 47 47 46 45 nan nan nan nan nan nan nan nan nan nan nan nan 44 47 48 52 50 42 34 34 29 36 38 44 32 43
47 45 47 50 51 51 nan 51 49 46 48 50 46 45 42 45 nan nan nan nan nan nan nan nan nan nan nan nan nan nan 44 50 51 48 43 41 33 35 37 32 40 36 28
49 48 51 54 54 nan 53 49 48 44 47 48 43 40 43 nan nan nan nan nan nan nan nan nan nan nan nan nan nan nan nan 36 39 43 39 41 33 35 37 37 38 40 33
50 50 53 55 nan 55 50 47 45 46 49 44 42 41 46 nan nan nan nan nan nan nan nan nan nan nan nan nan nan nan nan nan 25 34 32 34 35 35 38 37 42 42 34
52 52 56 57 56 54 49 46 45 48 48 45 41 44 49 51 nan nan nan nan nan nan nan nan nan nan nan nan nan 19 24 26 26 29 26 29 35 40 42 44 45 39 31
53 54 56 57 56 52 48 47 46 45 46 44 43 47 49 nan nan nan nan nan nan nan nan nan nan nan nan nan 12 12 22 22 25 23 26 31 33 36 40 48 41 42 31
53 53 55 55 52 49 47 46 45 46 43 44 42 46 nan nan nan nan nan nan nan nan nan nan 12 4 nan 8 7 10 16 20 27 28 30 33 34 34 39 43 40 37 36
54 55 55 53 50 48 47 48 45 44 42 41 41 46 53 nan nan nan nan nan nan nan nan nan 6 21 19 19 16 20 22 24 23 21 27 30 32 35 37 41 39 36 34
57 55 55 52 51 48 47 45 44 43 40 41 42 47 52 nan nan nan nan nan nan nan nan nan nan 13 26 25 21 24 24 24 27 30 32 32 32 34 36 37 38 36 34
56 55 55 53 54 51 48 40 40 37 39 nan 42 44 nan nan nan nan nan nan nan nan nan nan nan nan nan 24 32 31 30 27 27 29 29 30 32 33 36 36 37 38 37
63 58 53 47 47 47 45 38 35 46 37 33 39 nan nan nan nan nan nan nan nan nan nan nan nan nan nan nan nan nan nan nan 29 28 30 30 33 37 nan nan nan nan nan
72 62 20 13 41 31 31 37 37 nan 33 32 nan nan nan nan nan nan nan nan nan nan nan nan 19 nan nan nan nan nan nan nan nan nan nan nan nan nan nan nan nan nan nan
nan nan nan 33 28 35 32 34 nan nan nan nan nan nan nan nan nan nan nan nan nan nan nan nan nan nan nan nan nan nan nan nan nan nan nan nan nan nan nan nan nan nan nan
nan nan 49 45 35 28 31 36 nan nan nan nan nan nan nan nan nan nan nan nan nan nan nan nan nan nan nan nan nan nan nan nan nan nan nan nan nan nan nan nan nan nan nan
49 42 49 52 41 38 34 31 35 nan nan nan nan nan nan nan nan nan nan nan nan nan nan nan nan nan nan nan nan nan nan nan nan nan nan nan nan nan nan nan nan nan nan
45 32 37 29 29 28 27 20 29 28 nan 9 22 nan nan nan nan nan nan nan nan nan nan nan nan nan nan nan nan nan nan nan nan nan nan nan nan nan nan nan nan nan nan
16 17 31 29 31 23 15 35 26 25 12 nan nan nan nan nan nan nan nan nan nan nan nan nan nan nan nan nan nan nan nan nan nan nan nan nan nan nan nan nan nan nan nan
nan 13 30 18 23 17 22 23 nan nan 11 nan nan nan nan nan nan nan nan nan nan nan nan nan nan nan nan nan nan nan nan nan nan nan nan nan nan nan nan nan nan nan nan
8 19 nan nan nan nan nan nan nan 7 nan nan nan nan nan nan nan nan nan nan nan nan nan nan nan nan nan nan nan nan nan nan nan nan nan nan nan nan nan nan nan nan nan
24 nan 20 nan nan nan nan nan nan nan nan nan nan nan nan nan nan nan nan nan nan nan nan nan nan nan nan nan nan nan nan nan nan nan nan nan nan nan nan nan nan nan nan
nan nan nan nan nan nan nan nan nan nan nan nan nan nan nan nan nan nan nan nan nan nan nan nan nan nan nan nan nan nan nan nan nan nan nan nan nan nan nan nan nan nan nan
nan nan nan nan nan nan nan nan nan nan nan nan nan nan nan nan nan nan nan nan nan nan nan nan nan nan nan nan nan nan nan nan nan nan nan nan nan nan nan nan nan nan nan
nan nan nan nan nan nan nan nan nan nan nan nan nan nan nan nan nan nan nan nan nan nan nan nan nan nan nan nan nan nan nan nan nan nan nan nan nan nan nan nan nan nan nan
Wind_Direction
312 315 308 308 308 309 309 306 304 300 300 301 301 303 303 300 299 301 303 302 nan nan nan nan nan nan nan 270 266 270 275 277 279 270 nan nan nan nan 215 228 225 223 260
310 304 305 305 306 306 307 303 301 302 304 305 306 304 301 301 303 305 300 nan nan nan nan nan nan nan nan nan 267 266 268 273 276 279 274 258 nan nan nan 214 242 209 257
304 306 305 304 307 308 308 306 305 308 308 307 306 306 304 306 303 300 nan nan nan nan nan nan nan nan nan nan nan 263 265 265 268 269 265 264 253 nan nan 253 235 nan 200
304 304 304 304 304 304 303 302 305 306 305 303 303 306 306 303 305 nan nan nan nan nan nan nan nan nan nan nan nan 260 257 260 262 265 263 260 251 241 244 255 247 240 247
301 302 303 302 302 300 nan 299 303 303 303 302 305 306 304 308 nan nan nan nan nan nan nan nan nan nan nan nan nan nan 256 254 255 257 258 257 253 239 245 253 247 261 257
300 302 300 298 298 nan 297 302 303 306 301 301 306 305 306 nan nan nan nan nan nan nan nan nan nan nan nan nan nan nan nan 249 248 252 249 248 255 244 239 241 248 255 246
299 297 295 294 nan 295 300 303 304 302 300 305 305 307 307 nan nan nan nan nan nan nan nan nan nan nan nan nan nan nan nan nan 247 245 242 243 245 245 237 239 241 244 247
298 296 294 293 294 297 302 299 300 302 302 305 311 310 307 310 nan nan nan nan nan nan nan nan nan nan nan nan nan 252 233 242 242 248 241 230 236 242 231 238 239 241 237
298 296 294 293 294 299 300 298 301 303 304 309 311 308 310 nan nan nan nan nan nan nan nan nan nan nan nan nan 275 244 229 230 243 266 247 236 234 242 232 235 240 246 238
297 295 293 292 295 298 298 301 300 304 309 309 309 314 nan nan nan nan nan nan nan nan nan nan 19 2 nan 258 260 226 225 234 245 251 237 225 233 237 238 236 236 242 243
298 294 293 294 296 299 301 302 303 307 310 309 318 316 311 nan nan nan nan nan nan nan nan nan 271 244 234 241 243 215 215 216 236 229 229 227 232 234 235 241 245 248 246
296 297 297 296 295 297 296 299 303 308 312 318 317 310 315 nan nan nan nan nan nan nan nan nan nan 231 237 235 236 231 214 218 217 219 217 218 223 229 232 238 243 251 249
297 298 297 295 294 295 300 303 303 304 313 nan 312 313 nan nan nan nan nan nan nan nan nan nan nan nan nan 234 228 224 217 219 227 232 228 225 225 224 228 236 245 248 251
299 295 289 286 281 296 288 294 301 298 306 312 308 nan nan nan nan nan nan nan nan nan nan nan nan nan nan nan nan nan nan nan 230 237 238 234 235 234 nan nan nan nan nan
297 279 298 346 333 321 296 279 293 nan 301 308 nan nan nan nan nan nan nan nan nan nan nan nan 203 nan nan nan nan nan nan nan nan nan nan nan nan nan nan nan nan nan nan
nan nan nan 322 315 321 304 296 nan nan nan nan nan nan nan nan nan nan nan nan nan nan nan nan nan nan nan nan nan nan nan nan nan nan nan nan nan nan nan nan nan nan nan
nan nan 297 304 303 304 279 302 nan nan nan nan nan nan nan nan nan nan nan nan nan nan nan nan nan nan nan nan nan nan nan nan nan nan nan nan nan nan nan nan nan nan nan
299 291 290 294 310 303 297 295 281 nan nan nan nan nan nan nan nan nan nan nan nan nan nan nan nan nan nan nan nan nan nan nan nan nan nan nan nan nan nan nan nan nan nan
298 282 275 290 284 267 260 274 281 285 nan 336 310 nan nan nan nan nan nan nan nan nan nan nan nan nan nan nan nan nan nan nan nan nan nan nan nan nan nan nan nan nan nan
238 248 273 268 257 226 258 248 289 261 237 nan nan nan nan nan nan nan nan nan nan nan nan nan nan nan nan nan nan nan nan nan nan nan nan nan nan nan nan nan nan nan nan
nan 309 310 298 259 290 285 274 nan nan 325 nan nan nan nan nan nan nan nan nan nan nan nan nan nan nan nan nan nan nan nan nan nan nan nan nan nan nan nan nan nan nan nan
299 308 nan nan nan nan nan nan nan 318 nan nan nan nan nan nan nan nan nan nan nan nan nan nan nan nan nan nan nan nan nan nan nan nan nan nan nan nan nan nan nan nan nan
309 nan 308 nan nan nan nan nan nan nan nan nan nan nan nan nan nan nan nan nan nan nan nan nan nan nan nan nan nan nan nan nan nan nan nan nan nan nan nan nan nan nan nan
nan nan nan nan nan nan nan nan nan nan nan nan nan nan nan nan nan nan nan nan nan nan nan nan nan nan nan nan nan nan nan nan nan nan nan nan nan nan nan nan nan nan nan
nan nan nan nan nan nan nan nan nan nan nan nan nan nan nan nan nan nan nan nan nan nan nan nan nan nan nan nan nan nan nan nan nan nan nan nan nan nan nan nan nan nan nan
nan nan nan nan nan nan nan nan nan nan nan nan nan nan nan nan nan nan nan nan nan nan nan nan nan nan nan nan nan nan nan nan nan nan nan nan nan nan nan nan nan nan nan